{"data":{"norad_id":60096,"epoch":"2026-09-21T03:20:17.699136Z","epoch_age_seconds":122376,"freshness":"FRESH","line1":"1 60096U 24117F   26264.13909374 -.00000209  00000+0  49501-5 0  9997","line2":"2 60096  53.1618 206.9454 0001717  79.2917 280.8279 15.34393131126848","mean_motion":15.34393131,"eccentricity":0.0001717,"inclination_deg":53.1618,"raan_deg":206.9454,"arg_perigee_deg":79.2917,"mean_anomaly_deg":280.8279,"bstar":4.9501e-6,"rev_number":12684,"period_min":93.848178208509,"perigee_km":461.54908062414,"apogee_km":463.89823217355,"semimajor_km":6840.8606563988,"source":"CELESTRAK","updated_at":"2026-09-22T09:00:49.150578Z"}}